Home   Weather   Griffith   Past weeks
Flag for Australia

Past Weather in Griffith, New South Wales, Australia — Yesterday and Last 2 Weeks

Now
72 °F

Overcast.


Feels Like: 77 °F
Forecast: 59 / 49 °F
Wind: 15 mph from Northwest

Location: Griffith Airport

Current Time: May 25, 2019 at 5:16:49 pm

Latest Report: May 25, 2019 at 3:00 pm


Visibility: N/A

Pressure: 29.96 "Hg

Humidity: 43%

Dew Point: 48 °F

Location of GriffithLocation

Past Weather in Griffith — Graph

°F

Griffith Temperature Yesterday

Maximum temperature yesterday: 70 °F (at 2:00 pm)
Minimum temperature yesterday: 43 °F (at 2:00 am)
Average temperature yesterday: 55 °F

High & Low Weather Summary for the Past Weeks

 TemperatureHumidityPressure
High76 °F (May 20, 3:00 pm)100% (May 14, 8:00 am)30.46 "Hg (May 14, 8:00 am)
Low40 °F (May 14, 5:00 am)25% (May 23, 3:00 pm)29.90 "Hg (May 10, 3:00 pm)
Average56 °F75%30.30 "Hg
* Reported May 10 3:00 pm — May 25 3:00 pm, Griffith. Weather by CustomWeather, © 2019

Note: Actual official high and low records may vary slightly from our data, if they occured in-between our weather recording intervals... More about our weather records

Advertising

Griffith Weather History for the Previous 24 Hours

Scroll right to see more
 ConditionsComfort  
Time TempWeatherWind HumidityBarometerVisibility
3:00 pm
Sat, May 25
72 °FOvercast.15 mph43%29.96 "HgN/A
2:00 pm73 °FMild.17 mph41%29.97 "HgN/A
12:00 pm72 °FPartly sunny.15 mph46%30.02 "HgN/A
11:00 am70 °FMild.16 mph48%30.06 "HgN/A
9:00 am59 °FCool.5 mph76%30.08 "HgN/A
8:00 am53 °FCool.3 mph84%30.08 "HgN/A
6:00 am51 °FCool.6 mph83%30.07 "HgN/A
5:00 am53 °FCool.6 mph77%30.07 "HgN/A
3:00 am53 °FPassing clouds.3 mph81%30.08 "HgN/A
2:00 am52 °FCool.No wind84%30.10 "HgN/A
12:00 am49 °FCool.No wind91%30.11 "HgN/A
11:00 pm
Fri, May 24
50 °FCool.No wind88%30.12 "HgN/A
9:00 pm53 °FCool.No wind82%30.13 "HgN/A
8:00 pm53 °FCool.No wind81%30.13 "HgN/A
6:00 pm59 °FOvercast.5 mph69%30.13 "HgN/A
5:00 pm62 °FCool.No wind68%30.13 "HgN/A
Weather by CustomWeather, © 2019

See weather overview